Tracking 30995 objects as of 6-Jul-2025
HD Live streaming from Space Station
objects crossing your sky now

UFO 1 (USA 98)

Track UFO 1 (USA 98) now!
UFO 1 (USA 98) is classified as:


NORAD ID: 22563
Int'l Code: 1993-015A
Perigee: 36,069.6 km
Apogee: 36,093.3 km
Inclination: 25.0 °
Period: 1,450.8 minutes
Semi major axis: 42452 km
RCS: 8.2516 m2 (large)
Launch date: March 25, 1993
Source: United States (US)
Launch site: AIR FORCE EASTERN TEST RANGE (AFETR)
Your satellite tracking list
Your tracking list is empty




NASA's NSSDC Master Catalog

Two Line Element Set (TLE):
1 22563U 93015A   25185.92373713 -.00000102  00000-0  00000+0 0  9995
2 22563  24.9667  77.7260 0002795 285.3806 260.6727  0.99254261121381
Source of the keplerian elements: AFSPC